Location: Bittelbronn
(48.4454°N, 8.5870°E)
Time: 15:42:48
(UTC+00:00)

Cosmos 1953 - Pass Details

Date: 15 August 2024
Orbit: 504 x 523 km, 82.5° (Epoch: 18 September)

Event Time Altitude Azimuth Distance (km) Brightness Sun altitude
Exits shadow 02:01:05 - 143° (SE) 1,788 4.8 -19.2°
Reaches altitude 10° 02:01:14 10° 141° (SE) 1,737 4.7 -19.2°
Maximum altitude 02:04:16 23° 89° (E) 1,139 4.4 -18.9°
Drops below altitude 10° 02:07:20 10° 36° (NE) 1,762 6.2 -18.6°
Sets 02:09:47 0° 22° (NNE) 2,661 7.2 -18.3°
